Погода в Вышкове

Чехия     49˚16′47″N   16˚59′55″E
темп.,
°C
ветер,
м/с
пор.,
м/с
влажн.,
%
обл.,
%
осадки,
мм/ч
давл.,
гПа
погр.,
м
17 января, вс
вс1701:00−5˚зсз41179100 0.0 1018634
04:00−6˚сз41283100 0.0 1017481
07:00−7˚ссз398679 0.0 1018305
10:00−6˚ссв468528 0.0 1019517
13:00−6˚всв338264 0.1 1019468
16:00−8˚всв238898 0.0 1020173
19:00−10˚св228860 0.0 102263
22:00−10˚св12901 0.0 102446
18 января, пн
пн1801:00−11˚ссз00911 0.0 102421
04:00−10˚зюз11929 0.0 102421
07:00−10˚зюз119450 0.0 102421
10:00−8˚ю118755 0.0 1023145
13:00−6˚ююз228977 0.3 1022203
16:00−5˚ююз2295100 0.3 1022124
19:00−6˚юз229691 0.3 102240
22:00−4˚юз2397100 0.1 102254
19 января, вт
вт1901:00−2˚юз3892100 0.1 1022214
04:00−2˚зюз31092100 0.1 1020323
07:00−2˚юз3791100 0.1 1020187
10:00−1˚юз4886100 0.0 1018372
13:00ююз5986100 0.0 1016487
16:00−1˚ююз51297100 0.9 1014651
19:00−1˚ююз51098100 3.7 1013401
22:00+1˚ююз51198100 2.4 1012329
20 января, ср
ср2001:00+1˚ююз3898100 3.9 1013238
04:00+1˚юз4692100 0.0 1013127
07:00ююз3493100 0.0 101486
10:00ююз379197 0.0 1014267
13:00+1˚ююз389166 0.0 1013292
16:00−1˚ююз239035 0.0 101232
19:00−2˚ю139062 0.0 101255
22:00−1˚ююв259392 0.0 1011145
21 января, чт
чт2101:00+1˚юв3139696 0.0 1010499
04:00+2˚вюв41397100 0.0 1007598
07:00+2˚юв61596100 0.0 1006594
10:00+2˚ю51298100 0.0 1006584
13:00+1˚ююз4891100 0.0 1006427
16:00ююз129477 0.0 100723
19:00−1˚в118959 0.0 100821
22:00−1˚всв129323 0.0 100821